sat.trackr.live / text

‹ back to catalog

STARLINK-34945

NORAD 65185 · 2025-175M

PAYLOAD ACTIVE UNKNOWN

§ Identity

Operator
Country
US
Launch date
2025-08-14
Launch site
AFWTR
Launch vehicle
Mass (kg)
RCS (m²)

Purposes: comms

External: N2YO · Heavens-Above · Gunter

§ Orbital elements

Epoch: 2026-05-25T03:22:00.852096Z

Period
95.64 min
Inclination
97.4505°
Eccentricity
0.0002214
Mean motion
15.05658850 rev/d
Perigee alt
548.0 km
Apogee alt
551.0 km
Semi-major
6,927.6 km
B*
3.4491e-4
RAAN
17.6285°
Arg perigee
102.1078°
Mean anomaly
258.0397°
Rev number
4,414

§ Raw data

STARLINK-349451 65185U 25175M   26145.14028764  .00004923  00000+0  34491-3 0  99962 65185  97.4505  17.6285 0002214 102.1078 258.0397 15.05658850 44144

JSON: /api/v1/satellites/65185 · /tle

For live sub-satellite position, see the globe view (requires WebGL).

§ Visibility from observer

Set your observer location to see the next 7 days of passes ≥ 10°. The values pass through the URL so the page stays shareable.

No JS? Fill the form by hand. The geolocation button needs JavaScript.